Time,TemperatureF,DewpointF,PressureIn,WindDirection,WindDirectionDegrees,WindSpeedMPH,WindSpeedGustMPH,Humidity,HourlyPrecipIn,Conditions,Clouds,dailyrainin,SoftwareType,DateUTC
2013-07-08 00:00:00,55.0,50.0,-100.00,North,353,6.0,-999.0,84,0.00,,,-99.99,,2013-07-08 07:00:00,
2013-07-08 00:22:00,55.0,50.0,-100.00,North,353,6.0,-999.0,84,0.00,,,-99.99,,2013-07-08 07:22:00,
2013-07-08 00:34:00,55.0,50.0,-100.00,North,353,6.0,-999.0,84,0.00,,,-99.99,,2013-07-08 07:34:00,
2013-07-08 00:53:00,55.0,50.0,-100.00,North,353,6.0,-999.0,84,0.00,,,-99.99,,2013-07-08 07:53:00,
2013-07-08 01:00:00,52.0,49.0,-100.00,NNW,345,6.0,-999.0,87,0.00,,,-99.99,,2013-07-08 08:00:00,
2013-07-08 01:22:00,52.0,49.0,-100.00,NNW,345,6.0,-999.0,87,0.00,,,-99.99,,2013-07-08 08:22:00,
2013-07-08 01:33:00,52.0,49.0,-100.00,NNW,345,6.0,-999.0,87,0.00,,,-99.99,,2013-07-08 08:33:00,
2013-07-08 01:53:00,52.0,49.0,-100.00,NNW,345,6.0,-999.0,87,0.00,,,-99.99,,2013-07-08 08:53:00,
2013-07-08 02:00:00,50.0,47.0,-100.00,NNW,348,6.0,-999.0,89,0.00,,,-99.99,,2013-07-08 09:00:00,
2013-07-08 02:22:00,50.0,47.0,-100.00,NNW,348,6.0,-999.0,89,0.00,,,-99.99,,2013-07-08 09:22:00,
2013-07-08 02:34:00,50.0,47.0,-100.00,NNW,348,6.0,-999.0,89,0.00,,,-99.99,,2013-07-08 09:34:00,
2013-07-08 02:53:00,50.0,47.0,-100.00,NNW,348,6.0,-999.0,89,0.00,,,-99.99,,2013-07-08 09:53:00,
2013-07-08 03:00:00,49.0,47.0,-100.00,NNW,340,5.0,-999.0,91,0.00,,,-99.99,,2013-07-08 10:00:00,
2013-07-08 03:22:00,49.0,47.0,-100.00,NNW,340,5.0,-999.0,91,0.00,,,-99.99,,2013-07-08 10:22:00,
2013-07-08 03:34:00,49.0,47.0,-100.00,NNW,340,5.0,-999.0,91,0.00,,,-99.99,,2013-07-08 10:34:00,
2013-07-08 03:53:00,49.0,47.0,-100.00,NNW,340,5.0,-999.0,91,0.00,,,-99.99,,2013-07-08 10:53:00,
2013-07-08 04:00:00,48.0,46.0,-100.00,NNW,344,4.0,-999.0,93,0.00,,,-99.99,,2013-07-08 11:00:00,
2013-07-08 04:33:00,48.0,46.0,-100.00,NNW,344,4.0,-999.0,93,0.00,,,-99.99,,2013-07-08 11:33:00,
2013-07-08 04:53:00,48.0,46.0,-100.00,NNW,344,4.0,-999.0,93,0.00,,,-99.99,,2013-07-08 11:53:00,
2013-07-08 05:00:00,47.0,46.0,-100.00,North,349,4.0,-999.0,93,0.00,,,-99.99,,2013-07-08 12:00:00,
2013-07-08 05:22:00,47.0,46.0,-100.00,North,349,4.0,-999.0,93,0.00,,,-99.99,,2013-07-08 12:22:00,
2013-07-08 05:34:00,47.0,46.0,-100.00,North,349,4.0,-999.0,93,0.00,,,-99.99,,2013-07-08 12:34:00,
2013-07-08 05:53:00,47.0,46.0,-100.00,North,349,4.0,-999.0,93,0.00,,,-99.99,,2013-07-08 12:53:00,
2013-07-08 06:00:00,47.0,46.0,-100.00,NNW,338,6.0,-999.0,94,0.00,,,-99.99,,2013-07-08 13:00:00,
2013-07-08 06:33:00,47.0,46.0,-100.00,NNW,338,6.0,-999.0,94,0.00,,,-99.99,,2013-07-08 13:33:00,
2013-07-08 06:42:00,47.0,46.0,-100.00,NNW,338,6.0,-999.0,94,0.00,,,-99.99,,2013-07-08 13:42:00,
2013-07-08 06:53:00,47.0,46.0,-100.00,NNW,338,6.0,-999.0,94,0.00,,,-99.99,,2013-07-08 13:53:00,
2013-07-08 07:00:00,47.0,46.0,-100.00,NNW,337,4.0,-999.0,94,0.00,,,-99.99,,2013-07-08 14:00:00,
2013-07-08 07:23:00,47.0,46.0,-100.00,NNW,337,4.0,-999.0,94,0.00,,,-99.99,,2013-07-08 14:23:00,
2013-07-08 07:34:00,47.0,46.0,-100.00,NNW,337,4.0,-999.0,94,0.00,,,-99.99,,2013-07-08 14:34:00,
2013-07-08 07:53:00,47.0,46.0,-100.00,NNW,337,4.0,-999.0,94,0.00,,,-99.99,,2013-07-08 14:53:00,
2013-07-08 08:00:00,48.0,47.0,-100.00,NNW,339,3.0,-999.0,94,0.00,,,-99.99,,2013-07-08 15:00:00,
2013-07-08 08:22:00,48.0,47.0,-100.00,NNW,339,3.0,-999.0,94,0.00,,,-99.99,,2013-07-08 15:22:00,
2013-07-08 08:33:00,48.0,47.0,-100.00,NNW,339,3.0,-999.0,94,0.00,,,-99.99,,2013-07-08 15:33:00,
2013-07-08 08:53:00,48.0,47.0,-100.00,NNW,339,3.0,-999.0,94,0.00,,,-99.99,,2013-07-08 15:53:00,
2013-07-08 09:00:00,50.0,48.0,-100.00,NNW,341,2.0,-999.0,92,0.00,,,-99.99,,2013-07-08 16:00:00,
2013-07-08 09:22:00,50.0,48.0,-100.00,NNW,341,2.0,-999.0,92,0.00,,,-99.99,,2013-07-08 16:22:00,
2013-07-08 09:34:00,50.0,48.0,-100.00,NNW,341,2.0,-999.0,92,0.00,,,-99.99,,2013-07-08 16:34:00,
2013-07-08 09:43:00,50.0,48.0,-100.00,NNW,341,2.0,-999.0,92,0.00,,,-99.99,,2013-07-08 16:43:00,
2013-07-08 09:56:00,50.0,48.0,-100.00,NNW,341,2.0,-999.0,92,0.00,,,-99.99,,2013-07-08 16:56:00,
2013-07-08 10:00:00,55.0,49.0,-100.00,North,354,4.0,-999.0,81,0.00,,,-99.99,,2013-07-08 17:00:00,
2013-07-08 10:29:00,55.0,49.0,-100.00,North,354,4.0,-999.0,81,0.00,,,-99.99,,2013-07-08 17:29:00,
2013-07-08 10:54:00,55.0,49.0,-100.00,North,354,4.0,-999.0,81,0.00,,,-99.99,,2013-07-08 17:54:00,
2013-07-08 11:45:00,62.0,51.0,-100.00,North,351,4.0,-999.0,67,0.00,,,-99.99,,2013-07-08 18:45:00,
2013-07-08 11:59:00,62.0,51.0,-100.00,North,351,4.0,-999.0,67,0.00,,,-99.99,,2013-07-08 18:59:00,
2013-07-08 12:00:00,69.0,53.0,-100.00,NNW,343,4.0,-999.0,57,0.00,,,-99.99,,2013-07-08 19:00:00,
2013-07-08 14:00:00,77.0,55.0,-100.00,NNW,328,3.0,-999.0,47,0.00,,,-99.99,,2013-07-08 21:00:00,
2013-07-08 15:35:00,76.0,55.0,-100.00,NNW,331,4.0,-999.0,47,0.00,,,-99.99,,2013-07-08 22:35:00,
2013-07-08 18:00:00,74.0,54.0,-100.00,NW,326,2.0,-999.0,49,0.00,,,-99.99,,2013-07-09 01:00:00,
2013-07-08 18:37:00,74.0,54.0,-100.00,NW,326,2.0,-999.0,49,0.00,,,-99.99,,2013-07-09 01:37:00,
2013-07-08 18:46:00,74.0,54.0,-100.00,NW,326,2.0,-999.0,49,0.00,,,-99.99,,2013-07-09 01:46:00,
2013-07-08 19:00:00,71.0,54.0,-100.00,NW,323,2.0,-999.0,55,0.00,,,-99.99,,2013-07-09 02:00:00,
2013-07-08 19:34:00,71.0,54.0,-100.00,NW,323,2.0,-999.0,55,0.00,,,-99.99,,2013-07-09 02:34:00,
2013-07-08 19:48:00,71.0,54.0,-100.00,NW,323,2.0,-999.0,55,0.00,,,-99.99,,2013-07-09 02:48:00,
2013-07-08 19:57:00,71.0,54.0,-100.00,NW,323,2.0,-999.0,55,0.00,,,-99.99,,2013-07-09 02:57:00,
2013-07-08 20:00:00,67.0,53.0,-100.00,NNW,332,4.0,-999.0,61,0.00,,,-99.99,,2013-07-09 03:00:00,
2013-07-08 20:36:00,67.0,53.0,-100.00,NNW,332,4.0,-999.0,61,0.00,,,-99.99,,2013-07-09 03:36:00,
2013-07-08 20:47:00,67.0,53.0,-100.00,NNW,332,4.0,-999.0,61,0.00,,,-99.99,,2013-07-09 03:47:00,
2013-07-08 21:00:00,63.0,51.0,-100.00,NNW,339,5.0,-999.0,64,0.00,,,-99.99,,2013-07-09 04:00:00,
2013-07-08 21:22:00,63.0,51.0,-100.00,NNW,339,5.0,-999.0,64,0.00,,,-99.99,,2013-07-09 04:22:00,
2013-07-08 21:34:00,63.0,51.0,-100.00,NNW,339,5.0,-999.0,64,0.00,,,-99.99,,2013-07-09 04:34:00,
2013-07-08 21:53:00,63.0,51.0,-100.00,NNW,339,5.0,-999.0,64,0.00,,,-99.99,,2013-07-09 04:53:00,
2013-07-08 22:00:00,60.0,52.0,-100.00,NNW,346,5.0,-999.0,74,0.00,,,-99.99,,2013-07-09 05:00:00,
2013-07-08 22:22:00,60.0,52.0,-100.00,NNW,346,5.0,-999.0,74,0.00,,,-99.99,,2013-07-09 05:22:00,
2013-07-08 22:34:00,60.0,52.0,-100.00,NNW,346,5.0,-999.0,74,0.00,,,-99.99,,2013-07-09 05:34:00,
2013-07-08 22:52:00,60.0,52.0,-100.00,NNW,346,5.0,-999.0,74,0.00,,,-99.99,,2013-07-09 05:52:00,
2013-07-08 23:00:00,57.0,51.0,-100.00,NNW,347,4.0,-999.0,80,0.00,,,-99.99,,2013-07-09 06:00:00,
2013-07-08 23:34:00,57.0,51.0,-100.00,NNW,347,4.0,-999.0,80,0.00,,,-99.99,,2013-07-09 06:34:00,
2013-07-08 23:53:00,57.0,51.0,-100.00,NNW,347,4.0,-999.0,80,0.00,,,-99.99,,2013-07-09 06:53:00,